Year,Month,Day,Hour,Minute,Value (Times are PST for temperature in C)
2015,06,20,00,00,14.50
2015,06,20,00,01,14.40
2015,06,20,00,02,14.40
2015,06,20,00,03,14.40
2015,06,20,00,04,14.40
2015,06,20,00,05,14.40
2015,06,20,00,06,14.30
2015,06,20,00,07,14.30
2015,06,20,00,08,14.30
2015,06,20,00,09,14.30
2015,06,20,00,10,14.30
2015,06,20,00,11,14.30
2015,06,20,00,12,14.30
2015,06,20,00,13,14.30
2015,06,20,00,14,14.20
2015,06,20,00,15,14.20
2015,06,20,00,16,14.20
2015,06,20,00,17,14.20
2015,06,20,00,18,14.30
2015,06,20,00,19,14.30
2015,06,20,00,20,14.30
2015,06,20,00,21,14.30
2015,06,20,00,22,14.30
2015,06,20,00,23,14.30
2015,06,20,00,24,14.30
2015,06,20,00,25,14.40
2015,06,20,00,26,14.30
2015,06,20,00,27,14.30
2015,06,20,00,28,14.30
2015,06,20,00,29,14.30
2015,06,20,00,30,14.30
2015,06,20,00,31,14.30
2015,06,20,00,32,14.30
2015,06,20,00,33,14.30
2015,06,20,00,34,14.40
2015,06,20,00,35,14.40
2015,06,20,00,36,14.50
2015,06,20,00,37,14.60
2015,06,20,00,38,14.60
2015,06,20,00,39,14.60
2015,06,20,00,40,14.60
2015,06,20,00,41,14.60
2015,06,20,00,42,14.70
2015,06,20,00,43,14.70
2015,06,20,00,44,14.70
2015,06,20,00,45,14.70
2015,06,20,00,46,14.70
2015,06,20,00,47,14.70
2015,06,20,00,48,14.70
2015,06,20,00,49,14.70
2015,06,20,00,50,14.70
2015,06,20,00,51,14.60
2015,06,20,00,52,14.60
2015,06,20,00,53,14.60
2015,06,20,00,54,14.60
2015,06,20,00,55,14.60
2015,06,20,00,56,14.60
2015,06,20,00,57,14.60
2015,06,20,00,58,14.60
2015,06,20,00,59,14.50
2015,06,20,01,00,14.50
2015,06,20,01,01,14.50
2015,06,20,01,02,14.40
2015,06,20,01,03,14.40
2015,06,20,01,04,14.40
2015,06,20,01,05,14.40
2015,06,20,01,06,14.40
2015,06,20,01,07,14.40
2015,06,20,01,08,14.40
2015,06,20,01,09,14.40
2015,06,20,01,10,14.40
2015,06,20,01,11,14.40
2015,06,20,01,12,14.40
2015,06,20,01,13,14.40
2015,06,20,01,14,14.40
2015,06,20,01,15,14.40
2015,06,20,01,16,14.40
2015,06,20,01,17,14.40
2015,06,20,01,18,14.40
2015,06,20,01,19,14.40
2015,06,20,01,20,14.40
2015,06,20,01,21,14.40
2015,06,20,01,22,14.40
2015,06,20,01,23,14.40
2015,06,20,01,24,14.40
2015,06,20,01,25,14.40
2015,06,20,01,26,14.40
2015,06,20,01,27,14.40
2015,06,20,01,28,14.40
2015,06,20,01,29,14.40
2015,06,20,01,30,14.30
2015,06,20,01,31,14.30
2015,06,20,01,32,14.30
2015,06,20,01,33,14.30
2015,06,20,01,34,14.30
2015,06,20,01,35,14.30
2015,06,20,01,36,14.30
2015,06,20,01,37,14.30
2015,06,20,01,38,14.30
2015,06,20,01,39,14.30
2015,06,20,01,40,14.30
2015,06,20,01,41,14.30
2015,06,20,01,42,14.30
2015,06,20,01,43,14.20
2015,06,20,01,44,14.20
2015,06,20,01,45,14.20
2015,06,20,01,46,14.20
2015,06,20,01,47,14.20
2015,06,20,01,48,14.10
2015,06,20,01,49,14.10
2015,06,20,01,50,14.10
2015,06,20,01,51,14.10
2015,06,20,01,52,14.10
2015,06,20,01,53,14.10
2015,06,20,01,54,14.10
2015,06,20,01,55,14.00
2015,06,20,01,56,14.00
2015,06,20,01,57,14.00
2015,06,20,01,58,13.90
2015,06,20,01,59,13.90
2015,06,20,02,00,13.90
2015,06,20,02,01,13.90
2015,06,20,02,02,13.90
2015,06,20,02,03,13.80
2015,06,20,02,04,13.80
2015,06,20,02,05,13.80
2015,06,20,02,06,13.80
2015,06,20,02,07,13.70
2015,06,20,02,08,13.70
2015,06,20,02,09,13.60
2015,06,20,02,10,13.60
2015,06,20,02,11,13.60
2015,06,20,02,12,13.50
2015,06,20,02,13,13.50
2015,06,20,02,14,13.50
2015,06,20,02,15,13.40
2015,06,20,02,16,13.40
2015,06,20,02,17,13.30
2015,06,20,02,18,13.30
2015,06,20,02,19,13.30
2015,06,20,02,20,13.30
2015,06,20,02,21,13.20
2015,06,20,02,22,13.20
2015,06,20,02,23,13.20
2015,06,20,02,24,13.20
2015,06,20,02,25,13.20
2015,06,20,02,26,13.20
2015,06,20,02,27,13.20
2015,06,20,02,28,13.20
2015,06,20,02,29,13.20
2015,06,20,02,30,13.20
2015,06,20,02,31,13.20
2015,06,20,02,32,13.20
2015,06,20,02,33,13.20
2015,06,20,02,34,13.20
2015,06,20,02,35,13.20
2015,06,20,02,36,13.20
2015,06,20,02,37,13.20
2015,06,20,02,38,13.20
2015,06,20,02,39,13.20
2015,06,20,02,40,13.20
2015,06,20,02,41,13.20
2015,06,20,02,42,13.20
2015,06,20,02,43,13.20
2015,06,20,02,44,13.20
2015,06,20,02,45,13.20
2015,06,20,02,46,13.20
2015,06,20,02,47,13.10
2015,06,20,02,48,13.10
2015,06,20,02,49,13.10
2015,06,20,02,50,13.10
2015,06,20,02,51,13.10
2015,06,20,02,52,13.10
2015,06,20,02,53,13.00
2015,06,20,02,54,13.00
2015,06,20,02,55,12.90
2015,06,20,02,56,12.90
2015,06,20,02,57,12.90
2015,06,20,02,58,12.90
2015,06,20,02,59,12.90
2015,06,20,03,00,12.80
2015,06,20,03,01,12.80
2015,06,20,03,02,12.80
2015,06,20,03,03,12.80
2015,06,20,03,04,12.70
2015,06,20,03,05,12.70
2015,06,20,03,06,12.80
2015,06,20,03,07,12.80
2015,06,20,03,08,12.80
2015,06,20,03,09,12.80
2015,06,20,03,10,12.80
2015,06,20,03,11,12.90
2015,06,20,03,12,12.90
2015,06,20,03,13,12.90
2015,06,20,03,14,12.90
2015,06,20,03,15,12.90
2015,06,20,03,16,12.90
2015,06,20,03,17,12.80
2015,06,20,03,18,12.80
2015,06,20,03,19,12.80
2015,06,20,03,20,12.80
2015,06,20,03,21,12.80
2015,06,20,03,22,12.70
2015,06,20,03,23,12.70
2015,06,20,03,24,12.70
2015,06,20,03,25,12.60
2015,06,20,03,26,12.60
2015,06,20,03,27,12.60
2015,06,20,03,28,12.50
2015,06,20,03,29,12.50
2015,06,20,03,30,12.40
2015,06,20,03,31,12.40
2015,06,20,03,32,12.30
2015,06,20,03,33,12.30
2015,06,20,03,34,12.30
2015,06,20,03,35,12.20
2015,06,20,03,36,12.20
2015,06,20,03,37,12.10
2015,06,20,03,38,12.00
2015,06,20,03,39,11.90
2015,06,20,03,40,11.90
2015,06,20,03,41,11.80
2015,06,20,03,42,11.80
2015,06,20,03,43,11.70
2015,06,20,03,44,11.60
2015,06,20,03,45,11.50
2015,06,20,03,46,11.50
2015,06,20,03,47,11.40
2015,06,20,03,48,11.40
2015,06,20,03,49,11.30
2015,06,20,03,50,11.30
2015,06,20,03,51,11.20
2015,06,20,03,52,11.20
2015,06,20,03,53,11.10
2015,06,20,03,54,11.10
2015,06,20,03,55,11.00
2015,06,20,03,56,11.00
2015,06,20,03,57,10.90
2015,06,20,03,58,10.90
2015,06,20,03,59,10.80
2015,06,20,04,00,10.80
2015,06,20,04,01,10.80
2015,06,20,04,02,10.80
2015,06,20,04,03,10.70
2015,06,20,04,04,10.70
2015,06,20,04,05,10.70
2015,06,20,04,06,10.70
2015,06,20,04,07,10.60
2015,06,20,04,08,10.60
2015,06,20,04,09,10.60
2015,06,20,04,10,10.60
2015,06,20,04,11,10.50
2015,06,20,04,12,10.50
2015,06,20,04,13,10.50
2015,06,20,04,14,10.40
2015,06,20,04,15,10.40
2015,06,20,04,16,10.40
2015,06,20,04,17,10.40
2015,06,20,04,18,10.40
2015,06,20,04,19,10.30
2015,06,20,04,20,10.30
2015,06,20,04,21,10.30
2015,06,20,04,22,10.30
2015,06,20,04,23,10.30
2015,06,20,04,24,10.20
2015,06,20,04,25,10.20
2015,06,20,04,26,10.20
2015,06,20,04,27,10.20
2015,06,20,04,28,10.20
2015,06,20,04,29,10.20
2015,06,20,04,30,10.10
2015,06,20,04,31,10.10
2015,06,20,04,32,10.10
2015,06,20,04,33,10.10
2015,06,20,04,34,10.10
2015,06,20,04,35,10.10
2015,06,20,04,36,10.10
2015,06,20,04,37,10.10
2015,06,20,04,38,10.10
2015,06,20,04,39,10.10
2015,06,20,04,40,10.10
2015,06,20,04,41,10.00
2015,06,20,04,42,10.00
2015,06,20,04,43,10.00
2015,06,20,04,44,10.00
2015,06,20,04,45,9.90
2015,06,20,04,46,9.90
2015,06,20,04,47,9.90
2015,06,20,04,48,9.90
2015,06,20,04,49,9.90
2015,06,20,04,50,9.90
2015,06,20,04,51,9.90
2015,06,20,04,52,9.90
2015,06,20,04,53,9.90
2015,06,20,04,54,9.90
2015,06,20,04,55,9.90
2015,06,20,04,56,9.90
2015,06,20,04,57,9.90
2015,06,20,04,58,9.90
2015,06,20,04,59,9.90
2015,06,20,05,00,10.00
2015,06,20,05,01,10.00
2015,06,20,05,02,10.00
2015,06,20,05,03,10.10
2015,06,20,05,04,10.10
2015,06,20,05,05,10.10
2015,06,20,05,06,10.10
2015,06,20,05,07,10.10
2015,06,20,05,08,10.10
2015,06,20,05,09,10.10
2015,06,20,05,10,10.10
2015,06,20,05,11,10.10
2015,06,20,05,12,10.20
2015,06,20,05,13,10.20
2015,06,20,05,14,10.20
2015,06,20,05,15,10.20
2015,06,20,05,16,10.20
2015,06,20,05,17,10.20
2015,06,20,05,18,10.20
2015,06,20,05,19,10.20
2015,06,20,05,20,10.20
2015,06,20,05,21,10.20
2015,06,20,05,22,10.20
2015,06,20,05,23,10.10
2015,06,20,05,24,10.10
2015,06,20,05,25,10.10
2015,06,20,05,26,10.10
2015,06,20,05,27,10.10
2015,06,20,05,28,10.00
2015,06,20,05,29,10.00
2015,06,20,05,30,10.00
2015,06,20,05,31,10.00
2015,06,20,05,32,9.90
2015,06,20,05,33,9.90
2015,06,20,05,34,9.90
2015,06,20,05,35,9.90
2015,06,20,05,36,9.90
2015,06,20,05,37,9.90
2015,06,20,05,38,9.90
2015,06,20,05,39,9.90
2015,06,20,05,40,9.90
2015,06,20,05,41,9.90
2015,06,20,05,42,9.90
2015,06,20,05,43,9.90
2015,06,20,05,44,9.90
2015,06,20,05,45,9.90
2015,06,20,05,46,9.90
2015,06,20,05,47,9.90
2015,06,20,05,48,9.90
2015,06,20,05,49,9.90
2015,06,20,05,50,9.90
2015,06,20,05,51,9.90
2015,06,20,05,52,9.90
2015,06,20,05,53,9.90
2015,06,20,05,54,9.90
2015,06,20,05,55,9.90
2015,06,20,05,56,9.90
2015,06,20,05,57,9.90
2015,06,20,05,58,9.90
2015,06,20,05,59,9.90
2015,06,20,06,00,9.90
2015,06,20,06,01,9.90
2015,06,20,06,02,9.90
2015,06,20,06,03,9.90
2015,06,20,06,04,9.90
2015,06,20,06,05,10.00
2015,06,20,06,06,10.00
2015,06,20,06,07,10.10
2015,06,20,06,08,10.10
2015,06,20,06,09,10.20
2015,06,20,06,10,10.20
2015,06,20,06,11,10.20
2015,06,20,06,12,10.20
2015,06,20,06,13,10.20
2015,06,20,06,14,10.20
2015,06,20,06,15,10.30
2015,06,20,06,16,10.40
2015,06,20,06,17,10.40
2015,06,20,06,18,10.40
2015,06,20,06,19,10.50
2015,06,20,06,20,10.50
2015,06,20,06,21,10.50
2015,06,20,06,22,10.50
2015,06,20,06,23,10.50
2015,06,20,06,24,10.50
2015,06,20,06,25,10.50
2015,06,20,06,26,10.50
2015,06,20,06,27,10.40
2015,06,20,06,28,10.40
2015,06,20,06,29,10.40
2015,06,20,06,30,10.40
2015,06,20,06,31,10.40
2015,06,20,06,32,10.40
2015,06,20,06,33,10.40
2015,06,20,06,34,10.50
2015,06,20,06,35,10.50
2015,06,20,06,36,10.50
2015,06,20,06,37,10.50
2015,06,20,06,38,10.50
2015,06,20,06,39,10.50
2015,06,20,06,40,10.50
2015,06,20,06,41,10.50
2015,06,20,06,42,10.50
2015,06,20,06,43,10.50
2015,06,20,06,44,10.50
2015,06,20,06,45,10.50
2015,06,20,06,46,10.60
2015,06,20,06,47,10.60
2015,06,20,06,48,10.60
2015,06,20,06,49,10.60
2015,06,20,06,50,10.70
2015,06,20,06,51,10.70
2015,06,20,06,52,10.70
2015,06,20,06,53,10.70
2015,06,20,06,54,10.80
2015,06,20,06,55,10.80
2015,06,20,06,56,10.90
2015,06,20,06,57,10.90
2015,06,20,06,58,11.00
2015,06,20,06,59,11.10
2015,06,20,07,00,11.10
2015,06,20,07,01,11.20
2015,06,20,07,02,11.30
2015,06,20,07,03,11.40
2015,06,20,07,04,11.50
2015,06,20,07,05,11.50
2015,06,20,07,06,11.60
2015,06,20,07,07,11.70
2015,06,20,07,08,11.80
2015,06,20,07,09,11.90
2015,06,20,07,10,12.00
2015,06,20,07,11,12.20
2015,06,20,07,12,12.30
2015,06,20,07,13,12.40
2015,06,20,07,14,12.40
2015,06,20,07,15,12.50
2015,06,20,07,16,12.60
2015,06,20,07,17,12.70
2015,06,20,07,18,12.80
2015,06,20,07,19,12.90
2015,06,20,07,20,13.00
2015,06,20,07,21,13.10
2015,06,20,07,22,13.20
2015,06,20,07,23,13.30
2015,06,20,07,24,13.40
2015,06,20,07,25,13.50
2015,06,20,07,26,13.60
2015,06,20,07,27,13.70
2015,06,20,07,28,13.80
2015,06,20,07,29,13.90
2015,06,20,07,30,14.00
2015,06,20,07,31,14.10
2015,06,20,07,32,14.20
2015,06,20,07,33,14.30
2015,06,20,07,34,14.40
2015,06,20,07,35,14.40
2015,06,20,07,36,14.50
2015,06,20,07,37,14.60
2015,06,20,07,38,14.60
2015,06,20,07,39,14.70
2015,06,20,07,40,14.70
2015,06,20,07,41,14.80
2015,06,20,07,42,14.80
2015,06,20,07,43,14.90
2015,06,20,07,44,14.90
2015,06,20,07,45,15.00
2015,06,20,07,46,15.00
2015,06,20,07,47,15.10
2015,06,20,07,48,15.20
2015,06,20,07,49,15.20
2015,06,20,07,50,15.30
2015,06,20,07,51,15.30
2015,06,20,07,52,15.30
2015,06,20,07,53,15.40
2015,06,20,07,54,15.40
2015,06,20,07,55,15.40
2015,06,20,07,56,15.50
2015,06,20,07,57,15.50
2015,06,20,07,58,15.60
2015,06,20,07,59,15.60
2015,06,20,08,00,15.60
2015,06,20,08,01,15.70
2015,06,20,08,02,15.70
2015,06,20,08,03,15.70
2015,06,20,08,04,15.70
2015,06,20,08,05,15.70
2015,06,20,08,06,15.60
2015,06,20,08,07,15.50
2015,06,20,08,08,15.50
2015,06,20,08,09,15.40
2015,06,20,08,10,15.40
2015,06,20,08,11,15.30
2015,06,20,08,12,15.30
2015,06,20,08,13,15.20
2015,06,20,08,14,15.20
2015,06,20,08,15,15.20
2015,06,20,08,16,15.20
2015,06,20,08,17,15.10
2015,06,20,08,18,15.10
2015,06,20,08,19,15.20
2015,06,20,08,20,15.20
2015,06,20,08,21,15.30
2015,06,20,08,22,15.30
2015,06,20,08,23,15.30
2015,06,20,08,24,15.30
2015,06,20,08,25,15.40
2015,06,20,08,26,15.40
2015,06,20,08,27,15.50
2015,06,20,08,28,15.60
2015,06,20,08,29,15.70
2015,06,20,08,30,15.70
2015,06,20,08,31,15.70
2015,06,20,08,32,15.60
2015,06,20,08,33,15.60
2015,06,20,08,34,15.60
2015,06,20,08,35,15.60
2015,06,20,08,36,15.60
2015,06,20,08,37,15.60
2015,06,20,08,38,15.50
2015,06,20,08,39,15.50
2015,06,20,08,40,15.60
2015,06,20,08,41,15.60
2015,06,20,08,42,15.70
2015,06,20,08,43,15.80
2015,06,20,08,44,15.80
2015,06,20,08,45,15.90
2015,06,20,08,46,15.90
2015,06,20,08,47,15.90
2015,06,20,08,48,15.90
2015,06,20,08,49,15.90
2015,06,20,08,50,15.90
2015,06,20,08,51,15.80
2015,06,20,08,52,15.70
2015,06,20,08,53,15.60
2015,06,20,08,54,15.60
2015,06,20,08,55,15.50
2015,06,20,08,56,15.40
2015,06,20,08,57,15.40
2015,06,20,08,58,15.30
2015,06,20,08,59,15.20
2015,06,20,09,00,15.20
2015,06,20,09,01,15.10
2015,06,20,09,02,15.10
2015,06,20,09,03,15.10
2015,06,20,09,04,15.10
2015,06,20,09,05,15.20
2015,06,20,09,06,15.20
2015,06,20,09,07,15.20
2015,06,20,09,08,15.20
2015,06,20,09,09,15.20
2015,06,20,09,10,15.20
2015,06,20,09,11,15.20
2015,06,20,09,12,15.20
2015,06,20,09,13,15.20
2015,06,20,09,14,15.30
2015,06,20,09,15,15.30
2015,06,20,09,16,15.40
2015,06,20,09,17,15.40
2015,06,20,09,18,15.40
2015,06,20,09,19,15.50
2015,06,20,09,20,15.60
2015,06,20,09,21,15.60
2015,06,20,09,22,15.60
2015,06,20,09,23,15.70
2015,06,20,09,24,15.70
2015,06,20,09,25,15.70
2015,06,20,09,26,15.70
2015,06,20,09,27,15.70
2015,06,20,09,28,15.80
2015,06,20,09,29,15.80
2015,06,20,09,30,15.90
2015,06,20,09,31,15.90
2015,06,20,09,32,16.00
2015,06,20,09,33,15.90
2015,06,20,09,34,16.00
2015,06,20,09,35,16.10
2015,06,20,09,36,16.10
2015,06,20,09,37,16.10
2015,06,20,09,38,16.20
2015,06,20,09,39,16.20
2015,06,20,09,40,16.20
2015,06,20,09,41,16.20
2015,06,20,09,42,16.30
2015,06,20,09,43,16.40
2015,06,20,09,44,16.30
2015,06,20,09,45,16.30
2015,06,20,09,46,16.30
2015,06,20,09,47,16.40
2015,06,20,09,48,16.40
2015,06,20,09,49,16.30
2015,06,20,09,50,16.30
2015,06,20,09,51,16.30
2015,06,20,09,52,16.30
2015,06,20,09,53,16.30
2015,06,20,09,54,16.30
2015,06,20,09,55,16.40
2015,06,20,09,56,16.40
2015,06,20,09,57,16.40
2015,06,20,09,58,16.50
2015,06,20,09,59,16.60
2015,06,20,10,00,16.60
2015,06,20,10,01,16.70
2015,06,20,10,02,16.80
2015,06,20,10,03,16.70
2015,06,20,10,04,16.70
2015,06,20,10,05,16.60
2015,06,20,10,06,16.60
2015,06,20,10,07,16.60
2015,06,20,10,08,16.60
2015,06,20,10,09,16.60
2015,06,20,10,10,16.60
2015,06,20,10,11,16.60
2015,06,20,10,12,16.60
2015,06,20,10,13,16.60
2015,06,20,10,14,16.70
2015,06,20,10,15,16.80
2015,06,20,10,16,16.80
2015,06,20,10,17,16.90
2015,06,20,10,18,17.00
2015,06,20,10,19,17.00
2015,06,20,10,20,16.90
2015,06,20,10,21,16.80
2015,06,20,10,22,16.80
2015,06,20,10,23,16.90
2015,06,20,10,24,16.90
2015,06,20,10,25,17.00
2015,06,20,10,26,17.10
2015,06,20,10,27,17.10
2015,06,20,10,28,17.10
2015,06,20,10,29,17.00
2015,06,20,10,30,16.90
2015,06,20,10,31,16.80
2015,06,20,10,32,16.80
2015,06,20,10,33,16.70
2015,06,20,10,34,16.60
2015,06,20,10,35,16.50
2015,06,20,10,36,16.40
2015,06,20,10,37,16.40
2015,06,20,10,38,16.40
2015,06,20,10,39,16.40
2015,06,20,10,40,16.50
2015,06,20,10,41,16.50
2015,06,20,10,42,16.40
2015,06,20,10,43,16.40
2015,06,20,10,44,16.40
2015,06,20,10,45,16.40
2015,06,20,10,46,16.50
2015,06,20,10,47,16.60
2015,06,20,10,48,16.60
2015,06,20,10,49,16.60
2015,06,20,10,50,16.70
2015,06,20,10,51,16.70
2015,06,20,10,52,16.70
2015,06,20,10,53,16.60
2015,06,20,10,54,16.50
2015,06,20,10,55,16.50
2015,06,20,10,56,16.50
2015,06,20,10,57,16.50
2015,06,20,10,58,16.50
2015,06,20,10,59,16.50
2015,06,20,11,00,16.50
2015,06,20,11,01,16.50
2015,06,20,11,02,16.50
2015,06,20,11,03,16.50
2015,06,20,11,04,16.70
2015,06,20,11,05,16.70
2015,06,20,11,06,16.70
2015,06,20,11,07,16.70
2015,06,20,11,08,16.70
2015,06,20,11,09,16.80
2015,06,20,11,10,16.90
2015,06,20,11,11,17.00
2015,06,20,11,12,17.10
2015,06,20,11,13,17.10
2015,06,20,11,14,17.20
2015,06,20,11,15,17.20
2015,06,20,11,16,17.20
2015,06,20,11,17,17.20
2015,06,20,11,18,17.20
2015,06,20,11,19,17.30
2015,06,20,11,20,17.40
2015,06,20,11,21,17.40
2015,06,20,11,22,17.40
2015,06,20,11,23,17.40
2015,06,20,11,24,17.30
2015,06,20,11,25,17.30
2015,06,20,11,26,17.20
2015,06,20,11,27,17.20
2015,06,20,11,28,17.10
2015,06,20,11,29,17.00
2015,06,20,11,30,17.00
2015,06,20,11,31,17.00
2015,06,20,11,32,17.00
2015,06,20,11,33,17.00
2015,06,20,11,34,17.00
2015,06,20,11,35,17.00
2015,06,20,11,36,17.10
2015,06,20,11,37,17.10
2015,06,20,11,38,17.10
2015,06,20,11,39,17.20
2015,06,20,11,40,17.20
2015,06,20,11,41,17.30
2015,06,20,11,42,17.30
2015,06,20,11,43,17.30
2015,06,20,11,44,17.30
2015,06,20,11,45,17.30
2015,06,20,11,46,17.30
2015,06,20,11,47,17.30
2015,06,20,11,48,17.10
2015,06,20,11,49,17.00
2015,06,20,11,50,16.90
2015,06,20,11,51,16.80
2015,06,20,11,52,16.80
2015,06,20,11,53,16.80
2015,06,20,11,54,16.80
2015,06,20,11,55,16.80
2015,06,20,11,56,16.70
2015,06,20,11,57,16.70
2015,06,20,11,58,16.70
2015,06,20,11,59,16.70
2015,06,20,12,00,16.70
2015,06,20,12,01,16.70
2015,06,20,12,02,16.60
2015,06,20,12,03,16.60
2015,06,20,12,04,16.50
2015,06,20,12,05,16.50
2015,06,20,12,06,16.40
2015,06,20,12,07,16.40
2015,06,20,12,08,16.40
2015,06,20,12,09,16.40
2015,06,20,12,10,16.40
2015,06,20,12,11,16.50
2015,06,20,12,12,16.50
2015,06,20,12,13,16.50
2015,06,20,12,14,16.40
2015,06,20,12,15,16.40
2015,06,20,12,16,16.40
2015,06,20,12,17,16.30
2015,06,20,12,18,16.30
2015,06,20,12,19,16.30
2015,06,20,12,20,16.40
2015,06,20,12,21,16.40
2015,06,20,12,22,16.50
2015,06,20,12,23,16.50
2015,06,20,12,24,16.50
2015,06,20,12,25,16.60
2015,06,20,12,26,16.70
2015,06,20,12,27,16.80
2015,06,20,12,28,16.90
2015,06,20,12,29,17.00
2015,06,20,12,30,17.00
2015,06,20,12,31,17.00
2015,06,20,12,32,17.00
2015,06,20,12,33,17.00
2015,06,20,12,34,17.00
2015,06,20,12,35,17.00
2015,06,20,12,36,17.00
2015,06,20,12,37,17.00
2015,06,20,12,38,17.10
2015,06,20,12,39,17.10
2015,06,20,12,40,17.10
2015,06,20,12,41,17.20
2015,06,20,12,42,17.20
2015,06,20,12,43,17.20
2015,06,20,12,44,17.30
2015,06,20,12,45,17.30
2015,06,20,12,46,17.30
2015,06,20,12,47,17.40
2015,06,20,12,48,17.50
2015,06,20,12,49,17.60
2015,06,20,12,50,17.60
2015,06,20,12,51,17.70
2015,06,20,12,52,17.70
2015,06,20,12,53,17.70
2015,06,20,12,54,17.70
2015,06,20,12,55,17.70
2015,06,20,12,56,17.70
2015,06,20,12,57,17.60
2015,06,20,12,58,17.50
2015,06,20,12,59,17.40
2015,06,20,13,00,17.40
2015,06,20,13,01,17.30
2015,06,20,13,02,17.30
2015,06,20,13,03,17.20
2015,06,20,13,04,17.20
2015,06,20,13,05,17.10
2015,06,20,13,06,17.10
2015,06,20,13,07,17.20
2015,06,20,13,08,17.20
2015,06,20,13,09,17.30
2015,06,20,13,10,17.50
2015,06,20,13,11,17.60
2015,06,20,13,12,17.70
2015,06,20,13,13,17.70
2015,06,20,13,14,17.70
2015,06,20,13,15,17.60
2015,06,20,13,16,17.50
2015,06,20,13,17,17.30
2015,06,20,13,18,17.30
2015,06,20,13,19,17.20
2015,06,20,13,20,17.20
2015,06,20,13,21,17.20
2015,06,20,13,22,17.20
2015,06,20,13,23,17.20
2015,06,20,13,24,17.20
2015,06,20,13,25,17.30
2015,06,20,13,26,17.40
2015,06,20,13,27,17.50
2015,06,20,13,28,17.60
2015,06,20,13,29,17.80
2015,06,20,13,30,17.80
2015,06,20,13,31,17.90
2015,06,20,13,32,18.00
2015,06,20,13,33,18.00
2015,06,20,13,34,18.00
2015,06,20,13,35,17.90
2015,06,20,13,36,17.80
2015,06,20,13,37,17.80
2015,06,20,13,38,17.80
2015,06,20,13,39,17.80
2015,06,20,13,40,17.90
2015,06,20,13,41,17.80
2015,06,20,13,42,17.90
2015,06,20,13,43,17.90
2015,06,20,13,44,18.00
2015,06,20,13,45,18.10
2015,06,20,13,46,18.10
2015,06,20,13,47,18.20
2015,06,20,13,48,18.30
2015,06,20,13,49,18.40
2015,06,20,13,50,18.50
2015,06,20,13,51,18.60
2015,06,20,13,52,18.70
2015,06,20,13,53,18.70
2015,06,20,13,54,18.70
2015,06,20,13,55,18.80
2015,06,20,13,56,18.80
2015,06,20,13,57,18.70
2015,06,20,13,58,18.60
2015,06,20,13,59,18.50
2015,06,20,14,00,18.50
2015,06,20,14,01,18.40
2015,06,20,14,02,18.30
2015,06,20,14,03,18.30
2015,06,20,14,04,18.30
2015,06,20,14,05,18.20
2015,06,20,14,06,18.20
2015,06,20,14,07,18.20
2015,06,20,14,08,18.30
2015,06,20,14,09,18.40
2015,06,20,14,10,18.40
2015,06,20,14,11,18.30
2015,06,20,14,12,18.20
2015,06,20,14,13,18.10
2015,06,20,14,14,18.10
2015,06,20,14,15,18.10
2015,06,20,14,16,18.00
2015,06,20,14,17,17.90
2015,06,20,14,18,17.80
2015,06,20,14,19,17.80
2015,06,20,14,20,17.80
2015,06,20,14,21,17.80
2015,06,20,14,22,17.90
2015,06,20,14,23,18.00
2015,06,20,14,24,18.20
2015,06,20,14,25,18.30
2015,06,20,14,26,18.50
2015,06,20,14,27,18.60
2015,06,20,14,28,18.80
2015,06,20,14,29,18.90
2015,06,20,14,30,19.00
2015,06,20,14,31,19.00
2015,06,20,14,32,19.00
2015,06,20,14,33,19.00
2015,06,20,14,34,19.00
2015,06,20,14,35,18.90
2015,06,20,14,36,18.90
2015,06,20,14,37,18.90
2015,06,20,14,38,19.00
2015,06,20,14,39,19.00
2015,06,20,14,40,19.00
2015,06,20,14,41,18.90
2015,06,20,14,42,18.90
2015,06,20,14,43,18.90
2015,06,20,14,44,18.90
2015,06,20,14,45,19.00
2015,06,20,14,46,19.00
2015,06,20,14,47,19.20
2015,06,20,14,48,19.30
2015,06,20,14,49,19.40
2015,06,20,14,50,19.50
2015,06,20,14,51,19.40
2015,06,20,14,52,19.30
2015,06,20,14,53,19.20
2015,06,20,14,54,19.00
2015,06,20,14,55,18.90
2015,06,20,14,56,18.90
2015,06,20,14,57,18.90
2015,06,20,14,58,18.80
2015,06,20,14,59,18.80
2015,06,20,15,00,18.80
2015,06,20,15,01,18.90
2015,06,20,15,02,19.00
2015,06,20,15,03,19.00
2015,06,20,15,04,19.00
2015,06,20,15,05,19.00
2015,06,20,15,06,18.90
2015,06,20,15,07,18.90
2015,06,20,15,08,18.90
2015,06,20,15,09,19.00
2015,06,20,15,10,19.10
2015,06,20,15,11,19.20
2015,06,20,15,12,19.30
2015,06,20,15,13,19.40
2015,06,20,15,14,19.40
2015,06,20,15,15,19.40
2015,06,20,15,16,19.50
2015,06,20,15,17,19.40
2015,06,20,15,18,19.30
2015,06,20,15,19,19.30
2015,06,20,15,20,19.30
2015,06,20,15,21,19.30
2015,06,20,15,22,19.40
2015,06,20,15,23,19.50
2015,06,20,15,24,19.50
2015,06,20,15,25,19.50
2015,06,20,15,26,19.40
2015,06,20,15,27,19.40
2015,06,20,15,28,19.40
2015,06,20,15,29,19.50
2015,06,20,15,30,19.60
2015,06,20,15,31,19.70
2015,06,20,15,32,19.80
2015,06,20,15,33,19.80
2015,06,20,15,34,19.70
2015,06,20,15,35,19.70
2015,06,20,15,36,19.60
2015,06,20,15,37,19.70
2015,06,20,15,38,19.70
2015,06,20,15,39,19.80
2015,06,20,15,40,19.90
2015,06,20,15,41,20.10
2015,06,20,15,42,20.30
2015,06,20,15,43,20.40
2015,06,20,15,44,20.50
2015,06,20,15,45,20.40
2015,06,20,15,46,20.30
2015,06,20,15,47,20.10
2015,06,20,15,48,20.00
2015,06,20,15,49,20.00
2015,06,20,15,50,20.00
2015,06,20,15,51,19.90
2015,06,20,15,52,19.80
2015,06,20,15,53,19.80
2015,06,20,15,54,19.70
2015,06,20,15,55,19.70
2015,06,20,15,56,19.70
2015,06,20,15,57,19.80
2015,06,20,15,58,19.80
2015,06,20,15,59,19.80
2015,06,20,16,00,19.80
2015,06,20,16,01,19.70
2015,06,20,16,02,19.70
2015,06,20,16,03,19.60
2015,06,20,16,04,19.60
2015,06,20,16,05,19.60
2015,06,20,16,06,19.60
2015,06,20,16,07,19.50
2015,06,20,16,08,19.40
2015,06,20,16,09,19.40
2015,06,20,16,10,19.40
2015,06,20,16,11,19.30
2015,06,20,16,12,19.30
2015,06,20,16,13,19.30
2015,06,20,16,14,19.40
2015,06,20,16,15,19.40
2015,06,20,16,16,19.40
2015,06,20,16,17,19.50
2015,06,20,16,18,19.50
2015,06,20,16,19,19.60
2015,06,20,16,20,19.70
2015,06,20,16,21,19.80
2015,06,20,16,22,19.80
2015,06,20,16,23,19.90
2015,06,20,16,24,19.90
2015,06,20,16,25,19.90
2015,06,20,16,26,19.90
2015,06,20,16,27,20.00
2015,06,20,16,28,20.10
2015,06,20,16,29,20.10
2015,06,20,16,30,20.00
2015,06,20,16,31,20.00
2015,06,20,16,32,20.00
2015,06,20,16,33,19.90
2015,06,20,16,34,19.80
2015,06,20,16,35,19.80
2015,06,20,16,36,19.80
2015,06,20,16,37,19.80
2015,06,20,16,38,19.90
2015,06,20,16,39,19.90
2015,06,20,16,40,19.90
2015,06,20,16,41,19.90
2015,06,20,16,42,19.90
2015,06,20,16,43,19.90
2015,06,20,16,44,19.80
2015,06,20,16,45,19.80
2015,06,20,16,46,19.70
2015,06,20,16,47,19.60
2015,06,20,16,48,19.50
2015,06,20,16,49,19.50
2015,06,20,16,50,19.40
2015,06,20,16,51,19.40
2015,06,20,16,52,19.50
2015,06,20,16,53,19.50
2015,06,20,16,54,19.50
2015,06,20,16,55,19.60
2015,06,20,16,56,19.70
2015,06,20,16,57,19.70
2015,06,20,16,58,19.80
2015,06,20,16,59,19.90
2015,06,20,17,00,20.00
2015,06,20,17,01,20.00
2015,06,20,17,02,20.10
2015,06,20,17,03,20.00
2015,06,20,17,04,20.00
2015,06,20,17,05,20.10
2015,06,20,17,06,20.20
2015,06,20,17,07,20.20
2015,06,20,17,08,20.20
2015,06,20,17,09,20.10
2015,06,20,17,10,20.10
2015,06,20,17,11,20.10
2015,06,20,17,12,20.10
2015,06,20,17,13,20.10
2015,06,20,17,14,20.00
2015,06,20,17,15,20.10
2015,06,20,17,16,20.10
2015,06,20,17,17,20.20
2015,06,20,17,18,20.20
2015,06,20,17,19,20.20
2015,06,20,17,20,20.20
2015,06,20,17,21,20.20